THORAD AGENA D DEB, 42532

Orbit data source: Space-Track

THORAD AGENA D DEB, 42532 is space debris in SSO originally from a launch on Wed, 08 Apr 1970 UTC launched from the Air Force Western Test Range (AFWTR). Debris objects in space refer to the collection of defunct objects orbiting the Earth. Examples of debris include non-operational satellites, rocket bodies, and fragments generated from explosions, collisions, or faulty payload assembly.

Loading next visibility...
Identifier
42532, 1970-025SN
Orbit
SSO
Country
Flag of USUS
Related business
Manufacturer
Unknown
Mission
Spacecraft
Bus & Motor
Unknown
Mass
Unknown
Launch date (UTC)
1970-04-08 (56 years ago)
Launch vehicle
Unknown
Launch site
Air Force Western Test Range (AFWTR)
Object type
Payload
Rocket body
Debris
Shape & HBR
Unknown shape, 0.1 m
Radar Cross Section
Medium (>0.1 m² and <1 m²)

Expand to show TLE details & history
Last TLE update: 1 day ago

TLE from 1 day ago
0 THORAD AGENA D DEB
1 42532U 70025SN  26236.31278319  .00001410  00000-0  93679-3 0  9996
2 42532  99.9375 183.9079 0002331  68.1853 291.9558 14.03262875649238
Epoch: 2026-08-24T07:30Z
TLE epoch observation values (Epoch: 2026-08-24T07:30:24.467Z)
Latitude
-0.00002°
Longitude
98.70967°
Altitude
884.736 km
Speed
7.41 km/s
True Right ascension
12h 15m 37s
True Declination
0° 00' 00"
Sunlit
Object was in daylight at epoch
Visualization orbit readout
Latitude
Unknown
Longitude
Unknown
Altitude
Unknown
Speed
Unknown
Apparent Right ascension
Unknown
Apparent Declination
Unknown
Sunlit
N/A
Visualization observer readout
Local Sidereal Time
23:02:27
Azimuth
Unknown
Elevation
Unknown
Doppler factor
Unknown
Orbital elements
Apogee altitude
881.453 km
Perigee altitude
878.07 km
Semi-major axis
7,257.899 km
Eccentricity
0.00023
Inclination
99.9375°
RAAN
183.9079°
Arg. of periapsis
68.1853°
True anomaly
291.93102°
Mean anomaly
291.9558°
Eccentric anomaly
291.94341°
Mean motion
3.51016 °/min
Orbital period
102.56 mins
BSTAR
0.00093679

Documentation

Showing up to 5 results
|